DAL2623 KPBI-KJFK

Flight info

Callsign DAL2623
Flight time N/A
Altitude 37000
Route SLIDZ3 LENDS PELCN Y309 FLRDA SAGGY CHIEZ Q161 KALDA Q108 SIE CAMRN5
Aircraft B738/M-SDE2E3FGHIRWXY/LB1

Departure

Time 2026-05-07 15:54
Airport Palm Beach International Airport (KPBI)

Arrival

Time N/A
Airport John F. Kennedy International Airport (KJFK)
Time Latitude Longitude Altitude Speed Heading
2026-05-07 15:19 26.68739 -80.08995 21 ft 0 kts 93°
2026-05-07 15:45 26.68740 -80.09006 22 ft 3 kts 87°
2026-05-07 15:45 26.68736 -80.09030 23 ft 3 kts 69°
2026-05-07 15:45 26.68726 -80.09052 24 ft 3 kts 57°
2026-05-07 15:45 26.68714 -80.09073 21 ft 3 kts 70°
2026-05-07 15:46 26.68703 -80.09085 23 ft 1 kts 182°
2026-05-07 15:49 26.68701 -80.09085 23 ft 2 kts 182°
2026-05-07 15:49 26.68631 -80.09088 21 ft 13 kts 183°
2026-05-07 15:49 26.68515 -80.09095 21 ft 20 kts 183°
2026-05-07 15:50 26.68398 -80.09101 21 ft 11 kts 181°
2026-05-07 15:50 26.68353 -80.09045 21 ft 14 kts 93°
2026-05-07 15:50 26.68348 -80.08922 21 ft 17 kts 93°
2026-05-07 15:50 26.68342 -80.08782 21 ft 19 kts 92°
2026-05-07 15:51 26.68335 -80.08635 24 ft 20 kts 93°
2026-05-07 15:51 26.68328 -80.08475 21 ft 21 kts 93°
2026-05-07 15:51 26.68321 -80.08304 22 ft 23 kts 93°
2026-05-07 15:51 26.68313 -80.08119 21 ft 25 kts 93°
2026-05-07 15:52 26.68305 -80.07924 21 ft 25 kts 92°
2026-05-07 15:52 26.68296 -80.07802 21 ft 11 kts 113°
2026-05-07 15:52 26.68229 -80.07790 21 ft 10 kts 190°
2026-05-07 15:52 26.68191 -80.07804 21 ft 5 kts 241°
2026-05-07 15:53 26.68190 -80.07814 21 ft 0 kts 266°
2026-05-07 15:53 26.68190 -80.07820 21 ft 5 kts 266°
2026-05-07 15:53 26.68197 -80.08007 21 ft 56 kts 273°
2026-05-07 15:54 26.68228 -80.08695 21 ft 120 kts 272°
2026-05-07 15:54 26.68269 -80.09824 38 ft 169 kts 271°
2026-05-07 15:54 26.68353 -80.11173 572 ft 177 kts 269°
2026-05-07 15:54 26.68380 -80.12570 1185 ft 184 kts 267°
2026-05-07 15:55 26.68344 -80.14016 1756 ft 197 kts 266°
2026-05-07 15:55 26.68329 -80.15582 2472 ft 203 kts 269°
2026-05-07 15:55 26.68391 -80.17207 3068 ft 217 kts 270°
2026-05-07 15:55 26.68458 -80.18969 3499 ft 240 kts 272°
2026-05-07 15:56 26.68558 -80.20862 4285 ft 242 kts 271°
2026-05-07 15:56 26.68661 -80.22710 5264 ft 234 kts 277°
2026-05-07 15:56 26.69269 -80.24391 6037 ft 237 kts 308°
2026-05-07 15:56 26.70490 -80.25639 6592 ft 250 kts 322°
2026-05-07 15:57 26.72122 -80.26534 6759 ft 278 kts 350°
2026-05-07 15:57 26.74065 -80.26300 7259 ft 288 kts 19°
2026-05-07 15:57 26.75965 -80.25480 7843 ft 295 kts 21°
2026-05-07 15:57 26.77884 -80.24644 8570 ft 296 kts 21°
2026-05-07 15:58 26.79773 -80.23673 9216 ft 301 kts 37°
2026-05-07 15:58 26.81144 -80.21976 10001 ft 298 kts 62°
2026-05-07 15:58 26.81866 -80.19791 10497 ft 306 kts 78°
2026-05-07 15:58 26.82328 -80.17378 10641 ft 328 kts 79°
2026-05-07 15:59 26.82792 -80.14802 10828 ft 346 kts 79°
2026-05-07 15:59 26.83307 -80.12107 11155 ft 359 kts 77°
2026-05-07 15:59 26.83901 -80.09366 11741 ft 362 kts 76°
2026-05-07 15:59 26.84517 -80.06612 12369 ft 366 kts 75°
2026-05-07 16:00 26.85140 -80.03836 13038 ft 369 kts 75°
2026-05-07 16:00 26.85766 -80.01036 13676 ft 372 kts 75°
2026-05-07 16:00 26.86384 -79.98251 14218 ft 377 kts 75°
2026-05-07 16:00 26.87017 -79.95379 14760 ft 381 kts 75°
2026-05-07 16:01 26.87653 -79.92481 15322 ft 385 kts 75°
2026-05-07 16:01 26.88297 -79.89540 15889 ft 389 kts 75°
2026-05-07 16:01 26.88944 -79.86577 16441 ft 393 kts 75°
2026-05-07 16:01 26.89599 -79.83573 16995 ft 398 kts 74°
2026-05-07 16:02 26.90250 -79.80587 17542 ft 402 kts 74°
2026-05-07 16:02 26.90918 -79.77521 18094 ft 406 kts 74°
2026-05-07 16:02 26.91614 -79.74418 18598 ft 409 kts 71°
2026-05-07 16:02 26.92703 -79.71474 19047 ft 410 kts 58°
2026-05-07 16:03 26.94268 -79.68865 19525 ft 409 kts 47°
2026-05-07 16:03 26.96255 -79.66585 20006 ft 408 kts 39°
2026-05-07 16:03 26.98363 -79.64439 20471 ft 411 kts 38°
2026-05-07 16:03 27.00496 -79.62265 20922 ft 415 kts 39°
2026-05-07 16:04 27.02627 -79.60049 21369 ft 418 kts 39°
2026-05-07 16:04 27.04736 -79.57828 21790 ft 422 kts 39°
2026-05-07 16:04 27.06880 -79.55560 22201 ft 425 kts 39°
2026-05-07 16:04 27.09045 -79.53273 22610 ft 429 kts 39°
2026-05-07 16:05 27.11240 -79.50955 22948 ft 434 kts 39°
2026-05-07 16:05 27.13424 -79.48646 23333 ft 436 kts 39°
2026-05-07 16:05 27.15640 -79.46300 23732 ft 439 kts 39°
2026-05-07 16:05 27.17866 -79.43942 24067 ft 441 kts 39°
2026-05-07 16:06 27.19353 -79.42366 24291 ft 443 kts 38°
2026-05-07 16:06 27.22335 -79.39202 24782 ft 444 kts 38°
2026-05-07 16:06 27.23827 -79.37618 24999 ft 445 kts 38°
2026-05-07 16:06 27.26097 -79.35208 25305 ft 448 kts 38°
2026-05-07 16:07 27.29114 -79.32003 25706 ft 452 kts 38°
2026-05-07 16:07 27.30660 -79.30359 25913 ft 453 kts 38°
2026-05-07 16:07 27.32931 -79.27944 26221 ft 455 kts 39°
2026-05-07 16:07 27.35247 -79.25478 26527 ft 458 kts 39°
2026-05-07 16:08 27.37575 -79.22999 26826 ft 460 kts 39°
2026-05-07 16:08 27.39903 -79.20519 27131 ft 462 kts 39°
2026-05-07 16:08 27.42224 -79.18043 27403 ft 464 kts 39°
2026-05-07 16:08 27.44580 -79.15529 27687 ft 467 kts 39°
2026-05-07 16:09 27.46941 -79.13008 27963 ft 469 kts 39°
2026-05-07 16:09 27.49312 -79.10475 28234 ft 471 kts 39°
2026-05-07 16:09 27.51694 -79.07927 28501 ft 473 kts 39°
2026-05-07 16:09 27.54096 -79.05358 28764 ft 475 kts 39°
2026-05-07 16:10 27.56491 -79.02792 29091 ft 475 kts 39°
2026-05-07 16:10 27.58871 -79.00240 29371 ft 476 kts 39°
2026-05-07 16:10 27.61279 -78.97660 29600 ft 479 kts 39°
2026-05-07 16:10 27.63705 -78.95070 29823 ft 481 kts 37°
2026-05-07 16:11 27.66352 -78.92816 29982 ft 476 kts 25°
2026-05-07 16:11 27.69316 -78.91199 30219 ft 469 kts 15°
2026-05-07 16:11 27.72403 -78.90236 30480 ft 460 kts
2026-05-07 16:11 27.75569 -78.89771 30811 ft 456 kts
2026-05-07 16:12 27.78727 -78.89369 31119 ft 455 kts
2026-05-07 16:12 27.81885 -78.88977 31384 ft 456 kts
2026-05-07 16:12 27.85043 -78.88577 31663 ft 456 kts
2026-05-07 16:12 27.88155 -78.88167 31969 ft 455 kts
2026-05-07 16:13 27.91303 -78.87739 32282 ft 454 kts
2026-05-07 16:13 27.94443 -78.87304 32613 ft 453 kts
2026-05-07 16:13 27.97543 -78.86868 32944 ft 452 kts
2026-05-07 16:13 28.00662 -78.86427 33254 ft 451 kts
2026-05-07 16:14 28.03786 -78.85986 33550 ft 451 kts
2026-05-07 16:14 28.06908 -78.85544 33869 ft 451 kts
2026-05-07 16:14 28.10025 -78.85103 34179 ft 450 kts
2026-05-07 16:14 28.13133 -78.84663 34460 ft 449 kts
2026-05-07 16:15 28.16240 -78.84223 34750 ft 447 kts
2026-05-07 16:15 28.19283 -78.83792 35036 ft 446 kts
2026-05-07 16:15 28.22365 -78.83356 35346 ft 444 kts
2026-05-07 16:15 28.25435 -78.82920 35697 ft 441 kts
2026-05-07 16:16 28.28484 -78.82488 35968 ft 440 kts
2026-05-07 16:16 28.31525 -78.82057 36169 ft 441 kts
2026-05-07 16:16 28.34570 -78.81627 36388 ft 441 kts
2026-05-07 16:16 28.37576 -78.81200 36651 ft 439 kts
2026-05-07 16:17 28.40596 -78.80771 36921 ft 438 kts
2026-05-07 16:17 28.43626 -78.80340 37096 ft 439 kts
2026-05-07 16:17 28.46671 -78.79909 37076 ft 442 kts
2026-05-07 16:18 28.52769 -78.79042 37087 ft 440 kts
2026-05-07 16:18 28.58803 -78.78180 37088 ft 438 kts
2026-05-07 16:19 28.64855 -78.77317 37084 ft 437 kts
2026-05-07 16:19 28.70883 -78.76456 37085 ft 436 kts
2026-05-07 16:20 28.76902 -78.75596 37085 ft 435 kts
2026-05-07 16:20 28.82880 -78.74740 37089 ft 437 kts
2026-05-07 16:21 28.88937 -78.73874 37094 ft 439 kts
2026-05-07 16:21 28.95027 -78.73001 37089 ft 441 kts
2026-05-07 16:22 29.01104 -78.72128 37086 ft 444 kts
2026-05-07 16:22 29.07259 -78.71243 37108 ft 446 kts
2026-05-07 16:23 29.13438 -78.70352 37086 ft 447 kts
2026-05-07 16:23 29.19621 -78.69460 37074 ft 448 kts
2026-05-07 16:24 29.25803 -78.68565 37074 ft 446 kts
2026-05-07 16:24 29.31864 -78.67685 37069 ft 439 kts
2026-05-07 16:25 29.37920 -78.66642 37068 ft 444 kts
2026-05-07 16:25 29.43844 -78.64544 37075 ft 445 kts 11°
2026-05-07 16:26 29.49697 -78.62340 37075 ft 445 kts 11°
2026-05-07 16:26 29.55608 -78.60159 37076 ft 445 kts 11°
2026-05-07 16:27 29.61534 -78.58009 37064 ft 447 kts 10°
2026-05-07 16:27 29.67467 -78.55866 37076 ft 449 kts 10°
2026-05-07 16:28 29.73456 -78.53696 37071 ft 452 kts 10°
2026-05-07 16:28 29.79471 -78.51513 37069 ft 454 kts 10°
2026-05-07 16:29 29.85482 -78.49328 37063 ft 456 kts 10°
2026-05-07 16:29 29.91545 -78.47121 37072 ft 457 kts 10°
2026-05-07 16:30 29.97637 -78.44900 37062 ft 458 kts 10°
2026-05-07 16:30 30.03686 -78.42691 37058 ft 458 kts 10°
2026-05-07 16:31 30.09760 -78.40471 37045 ft 457 kts 10°
2026-05-07 16:31 30.15854 -78.38587 37057 ft 446 kts
2026-05-07 16:32 30.21967 -78.37725 37049 ft 443 kts 359°
2026-05-07 16:32 30.28114 -78.36886 37043 ft 443 kts 360°
2026-05-07 16:33 30.34235 -78.35971 37052 ft 443 kts
2026-05-07 16:33 30.40320 -78.35043 37051 ft 442 kts
2026-05-07 16:34 30.46423 -78.33877 37057 ft 445 kts
2026-05-07 16:34 30.52466 -78.32429 37049 ft 446 kts
2026-05-07 16:35 30.58542 -78.30971 37045 ft 446 kts
2026-05-07 16:35 30.64631 -78.29545 37043 ft 446 kts
2026-05-07 16:36 30.70699 -78.28138 37044 ft 446 kts
2026-05-07 16:36 30.76810 -78.26719 37048 ft 448 kts
2026-05-07 16:37 30.82937 -78.25292 37041 ft 448 kts
2026-05-07 16:37 30.89069 -78.23861 37039 ft 449 kts
2026-05-07 16:38 30.95157 -78.22445 37037 ft 449 kts
2026-05-07 16:38 31.01317 -78.21072 37040 ft 449 kts
2026-05-07 16:39 31.07436 -78.19722 37035 ft 450 kts
2026-05-07 16:39 31.13590 -78.18354 37029 ft 450 kts
2026-05-07 16:40 31.19745 -78.16977 37027 ft 450 kts
2026-05-07 16:40 31.25859 -78.15608 37052 ft 450 kts
2026-05-07 16:41 31.32015 -78.14227 37023 ft 450 kts
2026-05-07 16:41 31.38175 -78.12843 37018 ft 450 kts
2026-05-07 16:42 31.44325 -78.11473 37020 ft 448 kts
2026-05-07 16:42 31.50438 -78.10389 37013 ft 445 kts 359°
2026-05-07 16:43 31.56581 -78.09406 37015 ft 446 kts 358°
2026-05-07 16:43 31.62703 -78.08398 37008 ft 446 kts 359°
2026-05-07 16:44 31.68860 -78.07353 37005 ft 446 kts 359°
2026-05-07 16:44 31.75010 -78.06297 36998 ft 446 kts 359°
2026-05-07 16:45 31.81135 -78.05242 37006 ft 446 kts 359°
2026-05-07 16:45 31.87300 -78.04180 36993 ft 447 kts 359°
2026-05-07 16:46 31.93470 -78.03116 36993 ft 447 kts 359°
2026-05-07 16:46 31.99594 -78.02058 36985 ft 447 kts 359°
2026-05-07 16:47 32.05769 -78.00991 37005 ft 448 kts 358°
2026-05-07 16:47 32.11914 -77.99927 36984 ft 448 kts 358°
2026-05-07 16:48 32.18105 -77.98854 36966 ft 449 kts 358°
2026-05-07 16:48 32.24301 -77.97778 36968 ft 449 kts 358°
2026-05-07 16:49 32.30458 -77.96707 36957 ft 449 kts 358°
2026-05-07 16:49 32.36655 -77.95628 36966 ft 450 kts 358°
2026-05-07 16:50 32.42855 -77.94546 36960 ft 450 kts 358°
2026-05-07 16:50 32.49052 -77.93465 36952 ft 449 kts 358°
2026-05-07 16:51 32.55202 -77.92389 36951 ft 449 kts 358°
2026-05-07 16:51 32.61391 -77.91306 36956 ft 449 kts 358°
2026-05-07 16:52 32.67577 -77.90221 36952 ft 449 kts 358°
2026-05-07 16:52 32.73716 -77.89143 36944 ft 448 kts 358°
2026-05-07 16:53 32.79889 -77.88058 36946 ft 448 kts 358°
2026-05-07 16:53 32.86057 -77.86972 36948 ft 447 kts 358°
2026-05-07 16:54 32.91183 -77.86068 36942 ft 447 kts 358°
2026-05-07 16:54 32.97355 -77.84979 36936 ft 447 kts 358°
2026-05-07 16:55 33.03478 -77.83897 36940 ft 447 kts 358°
2026-05-07 16:55 33.09659 -77.82803 36958 ft 448 kts 358°
2026-05-07 16:56 33.15831 -77.81710 36948 ft 449 kts 358°
2026-05-07 16:56 33.25084 -77.80067 36940 ft 450 kts 358°
2026-05-07 16:57 33.31300 -77.78961 36933 ft 452 kts 358°
2026-05-07 16:57 33.37548 -77.77848 36939 ft 453 kts 358°
2026-05-07 16:58 33.43776 -77.76736 36936 ft 455 kts 358°
2026-05-07 16:58 33.50048 -77.75615 36938 ft 456 kts 358°
2026-05-07 16:59 33.56333 -77.74489 36924 ft 457 kts 358°
2026-05-07 16:59 33.62588 -77.73366 36946 ft 458 kts 357°
2026-05-07 17:00 33.68880 -77.72235 36926 ft 459 kts 358°
2026-05-07 17:00 33.75207 -77.70918 36927 ft 461 kts 359°
2026-05-07 17:01 33.81535 -77.69500 36924 ft 461 kts 359°
2026-05-07 17:01 33.87823 -77.68101 36939 ft 461 kts 359°
2026-05-07 17:02 33.94131 -77.66715 36921 ft 460 kts 359°
2026-05-07 17:02 34.00406 -77.65341 36916 ft 460 kts 358°
2026-05-07 17:03 34.06706 -77.63960 36911 ft 459 kts 359°
2026-05-07 17:03 34.12999 -77.62578 36922 ft 459 kts 358°
2026-05-07 17:04 34.19293 -77.61194 36907 ft 460 kts 358°
2026-05-07 17:04 34.25592 -77.59806 36911 ft 460 kts 358°
2026-05-07 17:05 34.31855 -77.58423 36914 ft 460 kts 358°
2026-05-07 17:05 34.38175 -77.57025 36922 ft 461 kts 358°
2026-05-07 17:06 34.44505 -77.55622 36918 ft 462 kts 358°
2026-05-07 17:06 34.50845 -77.54159 36911 ft 469 kts
2026-05-07 17:07 34.53952 -77.52902 36912 ft 485 kts 13°
2026-05-07 17:07 34.57024 -77.51143 36935 ft 489 kts 15°
2026-05-07 17:07 34.63115 -77.47397 36935 ft 491 kts 16°
2026-05-07 17:08 34.69214 -77.43639 36927 ft 491 kts 16°
2026-05-07 17:08 34.75302 -77.39957 36925 ft 490 kts 15°
2026-05-07 17:09 34.81431 -77.36281 36922 ft 490 kts 15°
2026-05-07 17:09 34.87557 -77.32606 36917 ft 492 kts 14°
2026-05-07 17:10 34.93664 -77.28933 36917 ft 493 kts 14°
2026-05-07 17:10 34.99830 -77.25214 36915 ft 494 kts 14°
2026-05-07 17:11 35.06018 -77.21475 36918 ft 495 kts 15°
2026-05-07 17:11 35.12168 -77.17752 36916 ft 497 kts 14°
2026-05-07 17:12 35.18376 -77.13987 36884 ft 497 kts 14°
2026-05-07 17:12 35.24582 -77.10218 36884 ft 497 kts 14°
2026-05-07 17:13 35.30752 -77.06463 36889 ft 497 kts 14°
2026-05-07 17:13 35.36953 -77.02684 36890 ft 497 kts 14°
2026-05-07 17:14 35.43119 -76.98919 36892 ft 496 kts 14°
2026-05-07 17:14 35.49305 -76.95134 36900 ft 496 kts 14°
2026-05-07 17:15 35.55484 -76.91348 36928 ft 496 kts 14°
2026-05-07 17:15 35.61643 -76.87582 36901 ft 496 kts 13°
2026-05-07 17:16 35.67843 -76.83814 36872 ft 496 kts 14°
2026-05-07 17:16 35.74038 -76.80043 36874 ft 496 kts 14°
2026-05-07 17:17 35.80190 -76.76284 36879 ft 497 kts 13°
2026-05-07 17:17 35.86408 -76.72475 36915 ft 498 kts 13°
2026-05-07 17:18 35.92612 -76.68638 36924 ft 501 kts 15°
2026-05-07 17:18 35.98729 -76.64547 36935 ft 504 kts 17°
2026-05-07 17:19 36.04881 -76.60326 36936 ft 504 kts 16°
2026-05-07 17:19 36.10990 -76.56156 36938 ft 503 kts 16°
2026-05-07 17:20 36.17128 -76.51990 36925 ft 502 kts 16°
2026-05-07 17:20 36.23259 -76.47831 36943 ft 500 kts 16°
2026-05-07 17:21 36.29370 -76.43679 36915 ft 500 kts 16°
2026-05-07 17:21 36.35460 -76.39532 36915 ft 498 kts 16°
2026-05-07 17:22 36.41497 -76.35412 36917 ft 497 kts 16°
2026-05-07 17:22 36.47575 -76.31258 36925 ft 497 kts 17°
2026-05-07 17:23 36.53606 -76.27130 36926 ft 498 kts 17°
2026-05-07 17:23 36.59683 -76.22962 36944 ft 498 kts 17°
2026-05-07 17:24 36.65761 -76.18785 36955 ft 500 kts 17°
2026-05-07 17:24 36.71872 -76.14578 36954 ft 503 kts 17°
2026-05-07 17:25 36.78009 -76.10346 36939 ft 505 kts 17°
2026-05-07 17:25 36.84147 -76.06101 36936 ft 506 kts 17°
2026-05-07 17:26 36.90320 -76.01826 36965 ft 507 kts 16°
2026-05-07 17:26 36.96474 -75.97555 36938 ft 509 kts 17°
2026-05-07 17:27 37.02680 -75.93237 36907 ft 510 kts 17°
2026-05-07 17:27 37.08930 -75.89031 36893 ft 501 kts 10°
2026-05-07 17:28 37.12145 -75.87575 36932 ft 484 kts
2026-05-07 17:28 37.15383 -75.86464 36917 ft 482 kts
2026-05-07 17:28 37.21850 -75.84350 36917 ft 482 kts
2026-05-07 17:29 37.28352 -75.82169 36915 ft 485 kts
2026-05-07 17:29 37.34839 -75.79925 36964 ft 486 kts
2026-05-07 17:30 37.41394 -75.77637 36938 ft 488 kts
2026-05-07 17:30 37.47906 -75.75357 36927 ft 489 kts
2026-05-07 17:31 37.54486 -75.73053 36931 ft 488 kts
2026-05-07 17:31 37.61048 -75.70753 36940 ft 488 kts
2026-05-07 17:32 37.67557 -75.68467 36934 ft 487 kts
2026-05-07 17:32 37.72984 -75.66557 36933 ft 487 kts
2026-05-07 17:33 37.80613 -75.63870 36934 ft 487 kts
2026-05-07 17:33 37.83828 -75.62492 36932 ft 502 kts 10°
2026-05-07 17:33 37.86999 -75.60442 36933 ft 519 kts 21°
2026-05-07 17:34 37.92933 -75.55229 36939 ft 522 kts 25°
2026-05-07 17:34 37.98851 -75.49906 36935 ft 518 kts 23°
2026-05-07 17:35 38.04825 -75.44714 36952 ft 524 kts 23°
2026-05-07 17:35 38.10920 -75.39641 36951 ft 524 kts 20°
2026-05-07 17:36 38.17105 -75.34664 36939 ft 527 kts 21°
2026-05-07 17:36 38.23316 -75.29809 36940 ft 514 kts 13°
2026-05-07 17:37 38.26552 -75.28070 36739 ft 495 kts
2026-05-07 17:37 38.29799 -75.26947 36332 ft 470 kts 354°
2026-05-07 17:37 38.32963 -75.26329 35868 ft 463 kts 352°
2026-05-07 17:37 38.36151 -75.25745 35528 ft 458 kts 353°
2026-05-07 17:38 38.39297 -75.25147 35314 ft 460 kts 353°
2026-05-07 17:38 38.42510 -75.24517 35143 ft 473 kts 353°
2026-05-07 17:38 38.45817 -75.23847 34896 ft 484 kts 354°
2026-05-07 17:38 38.49101 -75.23152 34479 ft 483 kts 354°
2026-05-07 17:39 38.52416 -75.22433 34057 ft 481 kts 354°
2026-05-07 17:39 38.55707 -75.21720 33624 ft 478 kts 354°
2026-05-07 17:39 38.58986 -75.21015 33200 ft 475 kts 354°
2026-05-07 17:39 38.62241 -75.20320 32791 ft 472 kts 354°
2026-05-07 17:40 38.65472 -75.19629 32453 ft 470 kts 354°
2026-05-07 17:40 38.68664 -75.18631 32029 ft 487 kts
2026-05-07 17:40 38.71836 -75.16910 31650 ft 502 kts 16°
2026-05-07 17:40 38.74830 -75.14503 31263 ft 514 kts 27°
2026-05-07 17:41 38.76764 -75.12643 31022 ft 514 kts 28°
2026-05-07 17:41 38.79544 -75.09848 30619 ft 515 kts 30°
2026-05-07 17:41 38.82347 -75.06985 30249 ft 513 kts 30°
2026-05-07 17:41 38.85141 -75.04151 29890 ft 511 kts 29°
2026-05-07 17:42 38.87941 -75.01349 29407 ft 509 kts 28°
2026-05-07 17:42 38.90746 -74.98575 28996 ft 506 kts 28°
2026-05-07 17:42 38.93537 -74.95831 28588 ft 503 kts 28°
2026-05-07 17:42 38.96313 -74.93106 28209 ft 499 kts 28°
2026-05-07 17:43 38.99065 -74.90402 27827 ft 496 kts 28°
2026-05-07 17:43 39.01793 -74.87716 27446 ft 493 kts 28°
2026-05-07 17:43 39.04488 -74.85056 27104 ft 491 kts 29°
2026-05-07 17:43 39.07188 -74.82389 26714 ft 488 kts 29°
2026-05-07 17:44 39.09874 -74.79733 26325 ft 486 kts 30°
2026-05-07 17:44 39.12298 -74.77237 25975 ft 485 kts 32°
2026-05-07 17:44 39.14891 -74.74443 25603 ft 484 kts 33°
2026-05-07 17:44 39.17452 -74.71631 25225 ft 481 kts 33°
2026-05-07 17:45 39.19971 -74.68860 24865 ft 479 kts 33°
2026-05-07 17:45 39.22506 -74.66084 24487 ft 477 kts 33°
2026-05-07 17:45 39.25035 -74.63328 24125 ft 473 kts 33°
2026-05-07 17:45 39.27536 -74.60607 23705 ft 465 kts 33°
2026-05-07 17:46 39.29993 -74.57938 23301 ft 460 kts 33°
2026-05-07 17:46 39.32416 -74.55309 22907 ft 458 kts 33°
2026-05-07 17:46 39.34852 -74.52663 22518 ft 456 kts 33°
2026-05-07 17:46 39.37281 -74.50021 22141 ft 454 kts 33°
2026-05-07 17:47 39.39696 -74.47390 21780 ft 452 kts 33°
2026-05-07 17:47 39.42097 -74.44772 21413 ft 450 kts 33°
2026-05-07 17:47 39.44495 -74.42155 21064 ft 449 kts 33°
2026-05-07 17:47 39.46847 -74.39588 20693 ft 447 kts 33°
2026-05-07 17:48 39.49227 -74.36988 20330 ft 446 kts 33°
2026-05-07 17:48 39.51595 -74.34396 19946 ft 444 kts 33°
2026-05-07 17:48 39.53946 -74.31820 19606 ft 442 kts 33°
2026-05-07 17:48 39.56295 -74.29246 19255 ft 441 kts 32°
2026-05-07 17:49 39.58639 -74.26675 18951 ft 437 kts 32°
2026-05-07 17:49 39.60927 -74.24156 18924 ft 425 kts 32°
2026-05-07 17:49 39.63124 -74.21736 18899 ft 412 kts 32°
2026-05-07 17:49 39.65278 -74.19364 18910 ft 400 kts 32°
2026-05-07 17:50 39.67371 -74.17059 18904 ft 388 kts 31°
2026-05-07 17:50 39.69401 -74.14822 18916 ft 378 kts 31°
2026-05-07 17:50 39.71358 -74.12663 18898 ft 368 kts 31°
2026-05-07 17:50 39.73291 -74.10528 18897 ft 358 kts 30°